“In life, you're either a passenger or a pilot. It’s your choice.”

WELCOME TO YOUR AVIATION DREAM!

What's new Up There Icon

WHAT’S NEW HERE?

4000+ aviation terms, acronyms and definitions!
Make your study a little easier with the aviation glossaries that gather over 4000 terms and acronyms extracted from weather, communications, technical and more general topics…
Partnership Icon

PARTNESHIP ANNOUNCEMENT

I am proud to announce a partnership with nizul Logo, study partner of every pilot who wants to consolidate their ground school knowledge and master their written examination.

Try Me Icon

ALL YOURS FOR 30 MINUTES!

Not sure you’d get along with a freelance instructor? How about giving it a try with a 30 minute flight?
My treat! All free.

Resources Tool Box

STUDENT RESOURCES

As a registered student training with me, you get access to a whole lot of files, tools, documents, aviation glossaries, videos, quizzes, sample tests, etc… 

Control Tower Icon

QUESTIONS? CHECK F.A.Q.

In aviation, the only stupid question is the one you didn’t ask. And there is a big chance yours has already been answered in the FAQ. Check it out!

Brain Icon

ARE YOU WIRED FOR FLYING?

Flying an aircraft is usually not the most difficult part of the “problem” and it takes a certain mindset to deal with the other aspects of a flight. Find out wether…

THEY DID IT!

Meet those who refused to be the passengers of their lives, and learn about their experience.

QUICK FACTS

Aviation is a world of serious numbers.
Here are my own, and they count as much as the other ones.

0
YEARS OF
WISDOM
0
YEARS OF
SKY FUN
0
AMAZING
STUDENTS
0
HOURS OF
PURE EXCITEMENT

Grow some wings,
Come fly with me!

Vancouver Island Weather

METARs and TAFs.
VICTORIA INTL (CYYJ)
METAR:

CYYJ 040800Z 00000KT 20SM FEW240 15/13 A3000 RMK CI1 SLP160 DENSITY ALT 100FT

TAF:

TAF CYYJ 040538Z 0406/0506 10005KT P6SM FEW200 FM041200 32005KT P6SM FEW008 FM041800 10008KT P6SM FEW200 BECMG 0504/0506 27005KT RMK NXT FCST BY 041200Z

NANAIMO (CYCD)
METAR:

CYCD 040400Z 05003KT 30SM FEW240 24/14 A2997 RMK CI1 LAST STFD OBS/NEXT 041300Z SLP149 DENSITY ALT 1200FT

TAF:

TAF CYCD 031738Z 0318/0404 VRB03KT P6SM FEW150 BECMG 0318/0320 02008KT RMK NXT FCST BY 040000Z

LONG BEACH (CYAZ)
METAR:

CYAZ 040100Z 30012KT 15SM FEW250 19/15 A3006 RMK CI2 FG BANK OFSHR LAST STFD OBS/NXT 041300UTC SLP179 DENSITY ALT 400FT

TAF:

TAF CYAZ 031838Z 0319/0401 VRB03KT P6SM FEW020 BECMG 0319/0321 28012KT RMK NXT FCST WILL BE ISSUED AT 041445Z

For more in-depth weather information, please, check Collaborative Flight Planning Service

For all Runway conditions in CYYJ, please check

IIDS Web View

Windy’s Forecast & Observations